Home > Weather > Hammerfest > Past weeks

Flag for Norway Past Weather in Hammerfest, Norway — Yesterday and Last 2 Weeks

Now
52 °F

More clouds than sun.


Feels Like: 50 °F
Forecast: 51 / 56 °F
Wind: 6 mph from Southwest

Location: Hammerfest

Current Time: Jul 25, 2016 at 4:14:57 PM

Latest Report: Jul 25, 2016 at 2:50 PM


Visibility: N/A

Pressure: 30.09 "Hg

Humidity: 94%

Dew Point: 50 °F

Location of HammerfestLocation

Past Weather in Hammerfest — Graph

°F

Hammerfest Temperature Yesterday

Maximum temperature yesterday: 57 °F (at 1:50 PM)
Minimum temperature yesterday: 50 °F (at 6:20 AM)
Average temperature yesterday: 53 °F

High & Low Weather Summary for the Past Weeks

 TemperatureHumidityPressure
High77 °F (Jul 23, 1:50 PM)100% (Jul 10, 3:50 PM)30.18 "Hg (Jul 10, 3:50 PM)
Low45 °F (Jul 10, 3:50 PM)47% (Jul 22, 4:50 PM)29.39 "Hg (Jul 17, 9:50 AM)
Average54 °F82%29.84 "Hg
* Reported Jul 10 2:50 PM — Jul 25 2:50 PM, Hammerfest, Weather by CustomWeather, © 2016

Note: Actual official high and low records may vary slightly from our data, if they occured in-between our weather recording intervals... More about our weather records

Advertising

Hammerfest Weather History for the Previous 24 Hours

Scroll right to see more
 ConditionsComfort  
Time TempWeatherWind HumidityBarometerVisibility
2:50 PM
Mon, Jul 25
52 °FMore clouds than sun.6 mph94%30.09 "HgN/A
2:20 PM54 °FMore clouds than sun.6 mph88%30.09 "HgN/A
1:50 PM54 °FBroken clouds.8 mph88%30.09 "HgN/A
12:50 PM55 °FBroken clouds.6 mph88%30.07 "HgN/A
11:50 AM54 °FBroken clouds.6 mph88%30.09 "HgN/A
11:20 AM52 °FBroken clouds.5 mph94%30.09 "HgN/A
10:50 AM52 °FBroken clouds.5 mph94%30.09 "HgN/A
8:50 AM50 °FMostly cloudy.5 mph100%30.09 "HgN/A
7:50 AM50 °FMostly cloudy.5 mph100%30.09 "HgN/A
6:50 AM52 °FBroken clouds.5 mph94%30.09 "HgN/A
6:20 AM52 °FBroken clouds.5 mph94%30.09 "HgN/A
5:50 AM52 °FMore clouds than sun.2 mph94%30.09 "HgN/A
5:20 AM50 °FMostly cloudy.2 mph100%30.09 "HgN/A
4:50 AM50 °FLow clouds.3 mph100%30.09 "HgN/A
4:20 AM50 °FPartly sunny.3 mph100%30.09 "HgN/A
3:50 AM50 °FBroken clouds.3 mph100%30.09 "HgN/A
2:50 AM50 °FBroken clouds.3 mph100%30.09 "HgN/A
2:20 AM50 °FLight rain. Broken clouds.3 mph100%30.09 "HgN/A
1:50 AM50 °FBroken clouds.3 mph100%30.09 "HgN/A
12:50 AM50 °FDrizzle. Broken clouds.3 mph100%30.09 "HgN/A
12:20 AM50 °FBroken clouds.5 mph100%30.12 "HgN/A
11:50 PM
Sun, Jul 24
52 °FScattered showers. Partly sunny.6 mph94%30.12 "HgN/A
10:50 PM52 °FBroken clouds.3 mph94%30.12 "HgN/A
9:50 PM52 °FPartly sunny.3 mph94%30.12 "HgN/A
9:20 PM52 °FScattered clouds.5 mph88%30.12 "HgN/A
8:50 PM54 °FScattered clouds.2 mph88%30.12 "HgN/A
7:50 PM54 °FScattered clouds.7 mph88%30.12 "HgN/A
6:50 PM54 °FScattered clouds.7 mph88%30.12 "HgN/A
5:50 PM55 °FScattered clouds.5 mph82%30.12 "HgN/A
4:50 PM54 °FSunny.3 mph88%30.12 "Hg10 mi
Weather by CustomWeather, © 2016

See weather overviewHow to use our weather pages